RH
2 2 2 2 2 2 2 2 2 1 1 1 1 1 2 2 2 4 5 7 10 11 10 8 12 18 23 98 100 100 100 100 100 100 100 100 99 100 100 100 100 100 100 100
2 2 2 2 2 2 2 2 1 1 1 1 1 1 1 1 2 2 4 6 8 10 7 9 14 20 100 100 100 100 97 100 94 100 100 98 100 98 100 100 100 100 100 99
2 2 2 1 1 1 1 1 1 1 1 1 1 1 1 1 1 1 2 4 7 7 7 12 15 74 100 100 100 100 100 100 100 100 100 100 91 100 96 90 93 86 100 100
1 1 1 1 1 1 1 1 1 1 1 1 1 1 1 1 1 2 2 3 5 6 9 12 16 69 100 100 100 100 100 100 100 100 100 100 100 100 100 98 99 100 100 100
1 1 1 1 1 1 1 1 1 1 1 1 1 1 1 1 2 2 2 3 4 7 10 14 20 76 100 100 100 100 100 100 100 100 100 100 100 100 100 100 100 100 100 100
1 1 1 1 2 2 1 1 1 1 1 1 2 2 2 2 2 2 3 4 6 11 20 77 89 100 100 100 100 100 100 100 100 100 100 100 100 100 100 100 100 100 86 100
2 2 2 2 2 2 2 2 2 2 2 2 2 2 2 2 2 3 4 6 19 15 92 100 100 100 100 100 100 100 100 100 100 100 100 100 100 100 100 100 100 100 100 98
3 3 3 2 2 3 2 3 2 2 3 3 3 3 3 3 3 5 6 9 55 99 100 100 100 100 100 100 100 100 100 100 100 100 100 100 100 100 100 100 99 100 100 100
4 3 3 4 4 4 4 4 4 4 4 4 4 4 4 6 5 8 12 75 100 100 100 100 100 100 100 100 100 100 100 100 100 100 100 100 100 100 100 100 100 100 100 100
4 4 3 4 4 4 6 10 11 16 16 9 9 8 8 8 8 10 16 100 100 100 100 100 100 100 100 100 100 100 100 100 100 100 100 100 100 100 100 100 96 100 99 100
5 5 4 6 6 8 14 23 31 42 44 46 48 16 12 14 15 14 19 100 100 100 100 100 100 100 100 100 100 100 100 100 100 100 100 100 100 100 100 100 100 100 100 100
5 6 7 7 11 18 31 60 81 65 75 60 54 58 19 17 17 23 26 100 100 100 100 100 100 100 100 100 100 100 100 100 100 100 100 100 100 100 100 100 100 100 100 100
6 6 8 10 14 19 20 48 55 74 78 63 62 58 50 21 24 98 81 100 98 100 100 100 100 100 100 100 100 100 100 98 100 100 100 100 100 100 100 100 100 100 100 100
9 9 12 13 14 14 17 26 32 34 36 42 40 45 46 21 31 100 100 100 100 100 100 100 100 100 99 100 100 100 100 100 100 100 100 100 100 100 100 100 100 100 100 100
19 24 24 18 22 27 30 31 32 31 28 24 23 20 23 29 26 100 100 100 100 100 96 97 100 100 99 91 100 100 100 100 97 100 100 100 100 100 100 99 100 100 100 100
24 27 28 25 26 30 32 34 34 36 36 28 18 18 22 21 28 58 100 100 100 100 100 100 100 100 97 100 100 100 100 100 100 100 100 92 100 100 100 100 100 100 94 100
33 31 28 29 33 31 31 31 33 33 34 31 33 31 21 22 28 100 97 100 100 100 100 100 100 96 91 97 100 100 100 100 100 100 100 100 100 90 88 94 100 100 100 100
51 46 42 42 44 40 38 36 35 37 36 34 34 34 31 29 19 49 100 100 100 100 100 100 100 100 100 100 100 100 100 100 100 100 100 95 100 100 96 100 94 96 100 100
58 58 51 51 55 56 58 58 54 52 50 47 44 35 32 30 34 32 25 79 100 100 100 100 100 100 100 100 94 92 100 100 99 100 99 100 100 100 100 100 100 100 100 100
64 61 61 58 56 55 51 46 45 47 47 47 45 43 38 33 30 26 24 28 25 29 43 77 93 100 90 97 100 100 95 88 88 80 78 84 75 91 76 91 100 100 86 99
67 68 68 63 61 58 59 58 57 53 52 52 51 50 47 43 44 37 35 31 30 26 22 27 27 36 39 35 35 42 54 64 76 86 85 84 73 62 62 55 61 56 67 68
66 63 62 63 63 64 62 62 59 54 51 52 55 55 50 48 43 40 37 40 38 37 34 31 26 18 22 18 15 14 15 17 20 20 22 25 35 41 36 25 21 51 51 35
86 84 79 74 71 71 71 73 73 66 65 62 58 59 56 49 46 48 46 41 43 46 42 40 36 32 32 33 24 16 12 10 7 6 7 6 7 9 13 14 14 15 15 12
90 95 95 89 90 90 89 85 79 80 80 70 64 56 52 49 48 49 50 43 42 38 42 40 38 35 34 32 22 16 10 6 5 4 3 3 3 3 3 3 3 4 5 6
82 87 88 88 86 86 88 93 96 95 95 85 73 62 57 53 50 47 49 47 45 39 39 41 35 36 32 25 20 12 7 4 3 3 3 3 3 2 2 2 2 3 3 3
82 79 77 77 81 81 78 86 92 96 99 94 77 70 63 59 53 52 49 49 45 44 38 40 33 28 28 19 14 10 5 3 3 4 4 4 4 4 2 2 2 2 2 2
Wind_Speed
41 44 48 50 54 57 60 62 65 66 67 66 65 65 68 76 74 75 78 79 81 80 77 64 65 75 79 78 82 82 74 69 65 79 80 69 66 61 56 53 48 54 66 68
34 38 44 49 53 56 59 61 64 67 67 69 69 68 70 72 72 74 73 76 80 83 70 66 68 75 75 80 83 83 73 80 80 68 61 64 62 62 66 57 53 58 63 68
35 39 44 46 49 52 56 58 59 57 56 56 58 61 65 69 73 74 72 79 81 82 66 68 80 86 83 83 84 81 76 78 71 69 66 60 60 68 68 63 64 65 59 61
32 34 36 40 40 38 40 40 40 42 42 46 48 49 52 59 66 72 75 78 81 75 66 78 88 95 96 91 85 87 84 87 89 87 78 66 68 66 64 63 63 63 58 57
24 26 29 29 29 31 31 31 33 36 38 37 38 42 46 56 60 66 74 77 75 70 81 84 87 99 94 103 96 93 90 94 81 76 77 69 63 58 59 56 59 64 61 59
18 20 21 20 21 23 23 22 24 25 25 27 32 40 47 52 56 60 67 70 74 84 84 88 96 103 97 102 99 95 98 90 88 88 84 75 70 65 61 59 63 66 71 62
13 14 14 14 12 11 12 10 11 13 15 19 28 37 46 49 51 56 64 72 82 88 94 104 96 95 101 103 104 106 105 105 98 89 88 87 81 76 75 75 74 69 69 75
6 5 5 5 4 4 8 8 8 11 15 20 23 26 29 38 46 55 69 80 84 87 94 110 107 108 108 103 109 112 104 109 103 103 99 91 82 81 77 80 82 80 81 80
4 2 6 12 16 16 18 17 17 13 10 14 19 25 36 44 50 61 75 92 108 97 97 118 111 109 104 100 100 97 105 105 105 102 102 104 98 91 86 91 84 88 89 91
8 11 12 16 20 27 35 34 33 30 23 16 9 18 28 40 49 64 84 107 99 101 103 118 114 109 107 98 96 103 109 109 104 105 106 102 108 101 100 92 95 93 92 93
19 21 20 24 28 39 41 42 39 32 31 29 18 15 24 35 50 67 90 119 103 101 93 109 114 106 105 109 105 111 106 100 103 102 99 103 105 104 104 103 98 99 101 97
29 28 31 30 37 40 42 45 36 35 28 30 28 16 27 40 51 67 95 126 110 87 102 96 119 114 115 109 112 106 111 105 106 106 101 103 110 107 108 105 107 105 102 108
32 31 35 38 37 35 36 38 34 33 29 27 26 24 26 38 58 81 101 127 106 92 80 93 104 116 109 101 101 106 114 116 111 111 104 111 103 105 105 110 108 110 111 106
44 45 47 43 39 37 36 37 36 31 23 18 18 23 27 42 61 91 109 127 113 102 95 89 109 111 111 97 95 92 102 108 111 112 112 108 109 111 113 107 107 109 108 109
58 54 51 48 48 49 49 46 44 39 32 21 13 11 25 40 56 93 108 117 116 116 94 97 104 93 109 113 107 108 101 105 116 115 114 116 121 117 114 119 117 110 110 112
60 56 55 51 54 53 49 47 44 42 37 31 23 15 7 26 48 83 109 119 117 126 115 107 114 109 96 99 103 106 105 104 110 122 124 124 118 124 127 126 125 125 125 120
57 55 53 52 53 51 48 50 48 45 41 38 35 27 17 7 28 72 113 104 104 91 105 100 103 100 111 111 100 102 110 120 119 118 118 122 133 134 137 136 133 129 129 127
50 49 48 48 48 48 48 44 41 40 39 37 34 30 26 17 9 43 80 82 77 82 86 87 85 94 98 101 113 112 118 126 121 124 126 133 135 135 142 143 145 144 140 136
41 42 43 41 40 39 37 35 35 34 33 32 30 26 25 25 21 14 15 71 74 62 74 84 80 87 90 97 117 130 127 128 139 144 144 146 149 145 144 144 147 149 152 149
33 32 31 31 30 30 30 29 28 25 25 24 23 24 25 24 20 12 12 28 31 36 65 94 95 86 93 96 112 110 118 135 141 157 157 163 167 167 162 162 158 158 162 159
23 23 24 24 23 23 24 24 24 25 22 22 22 23 23 25 27 28 31 34 36 34 22 33 38 54 69 72 75 87 104 126 133 131 134 141 158 170 179 175 178 186 180 177
17 18 18 18 19 20 21 21 22 23 23 23 22 23 25 28 30 31 33 37 39 37 41 45 43 40 51 52 61 65 78 82 95 106 112 124 134 143 151 156 158 178 187 183
13 13 13 14 15 17 18 21 21 23 24 28 27 25 26 29 31 31 33 42 45 42 49 51 54 56 61 67 64 64 69 81 93 104 115 118 117 121 130 134 136 137 141 141
13 13 14 15 16 17 19 21 23 24 25 27 30 31 35 37 39 37 42 44 47 53 57 60 64 66 71 76 73 71 72 75 75 71 73 77 82 88 95 104 111 118 124 129
15 16 17 18 18 20 21 23 26 27 28 32 32 36 38 41 47 49 49 53 58 60 68 71 77 74 83 74 76 77 76 70 61 55 56 57 64 69 71 70 74 80 86 91
19 21 22 23 24 24 24 25 28 31 32 35 37 39 44 47 52 55 59 59 64 68 75 79 83 80 88 82 82 81 74 63 53 50 48 48 49 52 56 56 57 58 61 67
Wind_Direction
250 247 252 254 256 257 258 259 259 259 258 254 249 245 240 235 231 228 224 220 219 221 225 218 205 206 208 206 208 211 218 214 226 231 239 243 244 246 250 245 245 247 251 254
253 256 257 257 259 261 264 264 262 260 257 255 251 244 240 234 228 226 219 216 216 219 219 211 204 208 201 208 213 213 218 221 227 229 228 236 237 241 252 246 245 252 252 253
255 258 262 267 267 266 263 261 259 255 250 247 246 243 237 232 226 220 217 214 214 219 211 203 200 197 201 199 204 209 217 214 219 226 230 239 242 249 243 241 242 242 245 247
269 271 271 270 271 273 273 271 266 262 255 245 238 234 227 224 220 216 209 211 211 213 202 202 199 197 195 204 204 217 212 215 225 232 236 235 238 237 237 239 244 242 241 247
287 285 289 288 282 275 271 269 266 261 251 243 233 221 211 210 209 207 206 205 205 198 193 198 199 199 199 208 210 214 215 219 223 228 229 228 227 235 237 235 239 238 241 245
299 287 287 279 279 273 262 252 247 237 232 220 212 204 196 198 197 199 198 196 190 188 190 186 192 198 196 207 207 212 219 218 220 222 227 231 234 233 234 235 236 237 242 240
310 303 303 280 254 249 231 212 206 196 191 203 204 194 189 191 191 191 186 184 184 187 183 190 191 192 202 208 213 214 215 219 222 224 226 235 235 240 239 235 235 235 237 239
327 296 239 232 159 139 137 131 150 158 164 170 181 176 176 179 183 181 180 178 177 177 181 190 192 197 201 202 208 212 215 220 225 228 230 232 237 240 237 240 237 240 240 241
100 164 132 120 116 105 93 87 87 101 132 161 174 176 170 174 177 176 175 169 171 177 188 191 191 195 199 210 212 217 219 222 223 226 228 232 236 236 238 240 239 237 241 244
121 117 134 123 112 108 96 86 75 74 68 91 141 171 176 177 174 174 172 170 176 183 192 193 194 200 206 211 214 219 220 222 225 229 232 232 236 238 239 241 244 243 242 245
105 106 109 113 113 105 99 90 87 77 77 82 91 138 170 167 178 176 178 174 185 194 197 201 202 206 208 213 217 217 216 218 222 227 232 235 236 239 240 243 247 249 251 250
96 96 98 102 106 106 105 96 86 96 87 88 108 122 163 175 183 182 180 180 188 190 196 203 204 207 210 215 219 219 216 224 230 233 234 237 239 240 242 244 248 250 252 255
94 95 98 97 97 101 109 100 101 91 93 99 109 136 160 179 183 182 183 182 190 191 199 206 208 209 213 217 220 225 226 228 233 234 233 236 238 241 243 245 249 251 253 252
87 86 86 87 90 93 93 92 83 80 79 89 128 148 167 179 184 182 184 185 192 200 207 210 211 216 214 218 219 221 227 227 228 231 234 233 237 241 244 246 250 250 252 255
83 82 83 84 84 83 82 81 82 80 75 73 79 145 183 187 189 186 185 188 194 203 207 215 219 218 217 220 228 230 229 232 234 234 236 239 239 243 245 246 249 251 253 253
81 81 80 86 82 80 80 81 80 77 76 71 68 66 122 203 202 197 194 196 200 206 210 217 220 223 225 228 228 231 231 234 237 237 238 240 241 240 244 247 249 251 252 253
78 79 78 78 75 78 77 77 79 75 75 78 75 72 69 114 210 203 200 201 210 218 217 219 224 226 230 228 236 240 239 239 241 242 246 248 246 245 244 246 247 248 250 252
72 72 71 73 72 73 74 74 74 71 70 75 73 78 85 88 126 210 207 209 218 223 227 232 235 238 240 244 241 243 242 242 241 243 248 249 250 251 252 251 252 250 249 250
68 69 70 69 66 64 63 64 64 63 63 59 61 66 83 93 98 116 186 218 225 234 237 237 241 249 249 251 247 244 250 253 247 246 244 247 250 249 250 251 251 250 251 250
63 64 67 73 70 71 71 72 70 61 57 58 50 46 45 47 34 86 63 180 203 228 241 243 244 246 249 255 253 255 256 255 254 249 253 255 255 252 251 251 251 251 252 251
59 56 55 53 49 51 53 49 48 51 36 39 34 32 25 17 16 12 7 4 351 349 348 238 245 243 251 252 256 258 258 258 256 256 256 257 258 257 254 253 254 255 252 254
45 41 39 36 32 26 27 26 22 23 18 9 11 9 7 8 3 358 357 354 346 337 335 332 326 307 308 288 277 271 259 259 255 255 257 258 257 259 261 263 261 256 256 258
20 17 13 9 5 5 2 359 356 2 359 355 353 348 349 350 354 350 350 350 344 338 336 334 324 319 320 321 307 297 290 281 272 269 267 265 263 261 260 262 265 265 265 265
351 350 349 343 344 347 346 341 339 346 342 343 338 339 340 339 339 342 351 343 345 338 334 332 331 329 329 321 320 310 299 294 290 283 276 271 269 267 264 263 263 262 263 263
334 324 323 324 325 329 332 333 333 333 332 330 331 333 334 335 338 341 340 342 340 338 337 340 339 338 336 329 325 318 314 309 302 292 285 281 275 272 271 268 264 261 260 259
327 331 326 316 313 314 320 325 324 324 328 323 325 327 331 332 336 335 335 337 340 339 338 341 338 338 341 333 329 324 320 314 308 302 298 292 286 283 277 272 267 262 258 257